Location: Paris
(48.6709°N, 2.3750°E)
Time: 23:44:56
(UTC+01:00)

Tiangong - Visible Passes

Search period start: 28 January 2022 00:00
Search period end: 07 February 2022 00:00
Orbit: 381 x 387 km, 41.5° (Epoch: 28 January)

Date Brightness Start Highest point End Pass type
(mag) Time Alt. Az. Time Alt. Az. Time Alt. Az.
28 Jan 3.8 19:59:38 10° SSW 20:00:17 13° SSW 20:00:17 13° SSW visible
29 Jan 3.5 19:00:43 10° S 19:02:08 12° SSE 19:03:25 10° SE visible
30 Jan 3.0 19:36:16 10° SW 19:38:39 20° S 19:38:42 20° S visible
31 Jan 3.4 18:36:55 10° SSW 18:39:00 16° SSE 18:41:05 10° ESE visible
31 Jan 3.6 20:12:41 10° SW 20:13:57 17° SW 20:13:57 17° SW visible
01 Feb 3.0 19:13:00 10° SW 19:15:31 22° S 19:16:58 16° SE visible
02 Feb 3.0 19:49:34 10° WSW 19:52:03 21° S 19:52:10 21° S visible
03 Feb 3.1 18:49:43 10° SW 18:52:16 22° S 18:54:49 10° SE visible
03 Feb 4.1 20:26:41 10° SW 20:27:23 12° SW 20:27:23 12° SW visible
04 Feb 3.4 19:26:28 10° WSW 19:28:43 18° SSW 19:30:27 12° SSE visible
05 Feb 3.3 18:26:27 10° WSW 18:28:55 21° S 18:31:23 10° SE visible
05 Feb 4.0 20:04:30 10° SSW 20:05:01 10° SSW 20:05:33 10° SSW visible
06 Feb 3.8 19:03:29 10° SW 19:05:15 14° SSW 19:07:03 10° SSE visible
